GFSFLT2_prec_radar_057.txt.gz
Reflectivity
-20 21 1 16 36 35 45 34 28 6 14 -12 -20 -20 -20 -20 -20 -20 -20 -20 -20 -20 -20 -20 -20 -20 -20 -20 -20 -20 -20 -20
0 29 34 23 36 42 35 36 28 -6 4 4 -20 -20 -20 -20 -20 -20 -20 -20 -20 -20 -20 1 -20 -20 -20 -20 -20 -20 -20 -20
37 33 18 19 25 21 28 21 33 21 15 -20 -20 -20 -20 -20 -20 -20 -20 -15 -8 -17 -19 12 -14 -20 -20 -20 -20 -20 -20 -20
46 34 32 32 17 -3 22 28 13 24 4 2 -20 -5 -20 -20 -20 -20 -8 -3 5 1 2 3 -7 -20 -20 -20 -20 -20 -20 -20
32 35 25 29 -3 17 28 5 31 31 24 11 -20 -20 -20 -20 -20 -20 -4 8 -20 -6 -1 -19 -14 -20 -20 -20 -20 -20 -20 -20
29 16 33 22 20 26 25 12 9 23 28 10 -20 -20 -19 11 5 -3 -8 -18 -20 -19 -20 -19 10 -15 -20 -20 -20 -20 -20 -20
19 28 23 -9 6 6 14 -11 -11 3 12 0 -20 -20 7 4 -5 -20 -18 -20 -20 -20 -20 -20 -19 -20 -20 -20 -20 -20 -20 -20
7 22 25 1 5 2 -4 -4 -20 -20 -19 -20 -20 -20 -0 15 -5 -20 3 -20 -20 -20 -20 -20 -20 -20 -20 -20 -20 -20 -20 -20
-4 12 14 15 -0 11 -9 -20 -18 1 -17 -16 -20 -20 -20 11 -20 -20 3 -20 -20 -20 -20 -20 -20 -20 -20 -20 -20 -20 -20 -20
-20 15 28 9 -1 26 28 -6 -6 -18 -7 8 2 -19 -20 -10 -10 -9 -19 -20 -20 -20 -20 -20 -20 -20 -20 -20 -20 -20 -20 -20
9 21 15 14 17 10 11 7 9 2 12 12 -0 -19 -20 13 -6 -20 -20 -20 -20 -20 -20 -20 -20 -20 -20 -20 -20 -20 -20 -20
16 24 -4 26 8 22 15 2 8 -3 -4 18 -1 -20 -0 -8 -10 -20 -14 -9 23 -20 -20 -20 -20 -20 -20 -20 -20 -20 -20 -20
-20 26 26 27 9 16 24 23 -14 -2 1 22 20 5 -7 -17 -20 -11 -4 -20 -20 -20 -20 -20 -20 -20 -20 -20 -20 -20 -20 -20
-20 -17 2 25 23 25 -6 6 -3 -7 -12 18 -7 14 -20 -20 -20 -18 -20 -20 -20 3 -20 -20 -20 -20 -20 -20 -20 -20 -20 -17
-15 -20 -20 -18 -8 -3 -11 -14 -3 2 -4 0 -20 -20 -20 -20 -20 -20 -20 -20 -20 -20 -20 -20 -20 -20 -20 -20 -8 16 -20 -20
-20 -20 -20 -20 -20 -20 -20 -20 -19 -7 -20 -20 -20 -20 -20 -20 -20 -20 -20 -20 -20 -20 -20 -20 -17 -20 12 -19 -6 -20 26 -20
-20 -20 -20 -20 -20 -20 -20 -20 -20 -20 -20 -20 -20 -20 -20 -20 -20 -20 -20 -20 -20 -18 27 21 16 5 15 6 18 -20 -7 22
-20 -20 -20 -20 -20 -20 -20 -20 -20 -20 -20 -20 -20 -20 -20 -20 -20 -20 -20 -18 -9 -6 -2 4 20 33 33 8 12 -4 16 2
-20 -20 -20 -20 -20 -20 -20 -20 -20 -20 -20 -20 -20 -20 -20 -20 -20 -20 -20 -2 8 17 9 -1 23 28 16 16 1 -19 19 11
-20 -20 -20 -20 -20 -20 -20 -20 -20 -20 -20 -20 -20 -20 -20 -20 -20 -20 -20 -17 -16 -20 -20 -16 5 21 -20 -20 -6 16 13 -16

GFSFLT2_prec_radar_063.txt.gz
Reflectivity
-14 -20 -20 -20 -20 -20 25 4 3 -10 15 -13 -8 1 -9 -20 -20 -20 -20 -20 -20 -20 -20 -20 -20 -20 -20 -20 -20 -20 -20 -20
1 -18 -20 -1 -20 -4 -19 32 3 16 24 6 7 -11 -20 -20 -20 -20 -20 -20 -20 -20 -20 -20 -20 -20 -20 -20 -20 -20 -20 -20
-15 30 13 -15 -20 -5 -19 26 26 15 17 13 -2 -17 -20 -20 -20 -20 -20 -20 -20 -20 -19 -16 -20 -20 -20 -20 -20 -20 -20 -20
20 11 17 29 26 17 19 11 10 26 30 23 -3 -18 -13 -19 -20 -20 -20 -20 -20 -20 -20 -20 -20 -20 -20 -20 -20 -20 -20 -20
37 37 39 35 33 29 34 40 40 30 35 3 15 12 10 -20 -20 -20 -20 -20 -20 -20 -20 -20 -19 -20 -20 -20 -20 -20 -20 -20
37 25 34 40 43 37 36 19 19 18 8 -4 23 -4 16 -9 -8 -20 -6 -20 -20 -20 -20 -20 -20 -20 -20 -20 -20 -20 -20 -20
31 32 31 27 35 35 30 17 11 23 29 -18 -15 -6 5 20 -20 -20 -20 -20 -20 -20 -20 -20 -20 -20 -20 -20 -20 -20 -20 -20
32 25 28 12 23 16 22 20 21 24 31 -17 0 13 -3 -16 -16 -20 -20 -20 -20 -20 -20 -20 -20 -20 -20 -20 -20 -20 -20 -20
35 30 24 18 -15 5 16 4 21 28 24 -10 8 -13 9 7 -16 -20 -20 4 5 -20 -20 -20 -20 -20 -20 -20 -20 -20 -20 -20
24 11 24 -3 -3 33 6 16 9 25 23 -19 9 16 13 -3 -13 -20 -20 -10 -11 -20 -20 -20 -20 -20 -20 -20 -20 -20 -20 -20
11 9 19 -11 17 13 7 32 14 10 14 17 10 5 -19 -20 -20 -20 -20 -18 -19 -20 -20 -20 -20 -20 -20 -20 -20 -20 -20 -20
-18 17 9 18 14 13 16 12 17 19 18 16 8 18 -3 4 -18 -20 -20 -20 -20 -20 -20 -20 -20 -20 -20 -19 -20 -20 -20 -20
25 11 27 2 15 11 -6 26 23 9 17 16 -15 17 21 8 6 -18 -20 -13 -15 -20 -3 -6 -20 -20 -20 -20 -20 -20 -20 -20
-20 6 -11 22 13 17 4 24 12 11 8 21 -1 2 4 10 -6 -20 -15 -20 -20 -17 -9 -20 -20 -20 -20 -20 -20 -20 -20 -20
-20 -20 -20 -14 5 14 13 17 -6 8 14 20 19 22 9 2 -19 -18 -3 -8 -5 -16 2 -20 -20 -20 -20 -20 -20 -20 -20 -20
-20 -20 -20 3 -9 10 27 -4 -13 -5 2 13 15 -4 -20 -20 -20 -13 16 24 -14 9 -3 -15 -20 -20 -20 -20 -20 -20 -20 -20
-20 -20 -20 -10 3 4 -6 1 -19 -14 6 17 11 15 5 12 11 11 14 -19 -3 -20 -20 -20 -20 -20 -20 -20 -20 -20 -20 -20
-20 -20 -20 -20 -19 -18 -10 -20 -6 10 5 1 8 10 15 13 -6 -13 -17 -19 -20 -20 -20 -20 -20 -20 -20 25 5 -11 -15 -20
-20 -20 -20 -20 -18 -15 -20 -20 -20 -12 -9 -10 -15 -20 -20 -20 -20 -20 -20 -20 -20 -20 -20 -20 -20 -20 2 26 32 25 31 -8
-20 -20 -20 -20 -20 -20 -20 -20 -20 -20 -20 -20 -20 -20 -20 -20 -20 -20 -20 -20 -20 -20 -20 -20 -20 -3 26 25 25 30 27 9

GFSFLT2_prec_radar_069.txt.gz
Reflectivity
-20 10 -14 -11 28 7 35 47 10 -11 -20 -20 -4 -20 -13 15 -12 -18 -20 -20 -20 -20 -20 -20 -20 -20 -20 -20 -20 -20 -20 -20
5 3 -19 -20 1 25 39 43 41 -7 -6 -19 -20 -20 -20 0 6 -20 -20 -20 -17 -20 -20 -20 -20 -20 -20 -20 -20 -20 -20 -20
4 -1 17 -5 -14 1 13 46 43 26 -8 4 -16 9 2 -1 -20 -20 -20 -16 -20 -20 -20 -20 -20 -20 -20 -20 -20 -20 -20 -20
1 -6 22 14 31 -1 -19 32 28 37 31 -11 5 6 24 -8 -12 -20 -10 -7 -20 -20 -20 -20 -20 -20 -20 -20 -20 -20 -20 -20
-0 9 -1 26 28 25 27 -5 32 29 28 25 7 6 13 15 15 -14 6 -20 -20 -20 -20 -20 -20 -20 -20 -20 -20 -20 -20 -20
26 -7 8 -5 19 -0 6 -13 -4 29 40 36 35 22 24 10 -3 -1 -0 -20 -20 -20 -20 -20 -20 -20 -20 -20 -20 -20 -20 -20
-0 -16 8 9 8 16 18 27 28 32 23 32 34 32 33 2 3 2 -14 -20 -20 -20 -20 -20 -20 -20 -20 -20 -20 -20 -20 -20
-1 -2 -20 -8 5 30 28 20 37 36 31 31 29 32 19 20 24 -4 -20 -20 -20 -20 -20 -20 -20 -20 -20 -20 -20 -20 -20 -20
9 -7 -3 -12 3 12 26 22 28 35 35 34 34 29 21 30 11 -20 -20 -20 -20 -20 -20 -20 -20 -20 -20 -20 -20 -20 -20 -20
11 -6 5 16 17 19 20 30 32 31 30 23 24 19 14 10 4 -20 -20 -17 -20 -20 -20 -20 -20 -20 -20 -20 -20 -20 -20 -20
3 2 -8 -15 19 20 27 30 29 27 24 26 30 -0 -20 -20 -12 -16 -12 7 -19 -20 -20 -20 -20 -20 -20 -20 -20 -20 -20 -20
-20 -14 1 6 9 12 14 28 29 29 13 3 11 13 12 1 5 -14 1 -20 -20 -20 -20 -20 -20 -20 -20 -20 -20 -20 -20 -20
-12 -20 0 8 11 13 10 18 19 25 20 18 20 16 8 5 8 -4 -10 -5 17 18 -6 -20 -20 -20 -20 -20 -20 -20 -20 -20
1 -16 -10 9 4 4 3 -18 -2 9 19 14 11 -20 -20 -20 -20 -16 16 23 13 -9 -10 -20 -11 4 -20 -8 -10 -20 -20 -20
0 2 -16 -20 -19 -12 7 5 15 -3 6 3 -10 -20 -14 -15 -18 17 -19 -12 -18 -20 -20 -20 31 -11 -20 5 20 -1 -11 -20
7 -2 -1 -20 -17 -6 -20 -16 8 -20 -12 -6 10 -20 -20 -19 -4 -19 -16 -15 -20 -20 -20 -14 33 28 3 -20 -20 -16 17 -3
2 2 -17 -2 1 -11 -20 -20 5 -20 11 13 17 -13 -20 -20 -20 -19 -14 -17 0 5 7 28 10 29 15 21 -20 -20 -20 -20
5 -2 -11 -8 3 3 -20 -20 -19 -20 7 -9 -15 -10 -16 -20 -19 5 -9 17 -4 13 20 18 29 8 19 24 -20 -20 5 -10
-20 -11 -6 -8 -20 -14 -11 -20 -20 -20 -20 10 -17 -13 -6 -13 -19 -10 14 -10 28 11 9 19 22 -20 8 2 23 -20 6 -8
-20 -20 -15 4 -6 -20 -4 -20 -20 -20 -20 -3 -20 -20 -19 -20 -12 6 6 14 4 21 -16 -2 -16 -20 25 -20 20 -19 -20 -15

GFSFLT2_prec_radar_072.txt.gz
Reflectivity
6 -20 -13 -10 -20 34 30 35 50 41 28 1 -20 -20 -20 -0 -20 -20 6 -20 -20 -20 -20 -20 -20 -20 -20 -20 -20 -20 -20 -20
-20 26 -20 -15 -20 1 27 17 26 43 42 -3 -14 -20 5 -20 8 3 -20 -20 -20 -20 -20 -20 -20 -20 -20 -20 -20 -20 -20 -20
-18 -18 2 -16 -3 5 6 -17 3 45 20 7 -20 -20 -20 -12 9 6 11 -20 -20 -20 -20 -20 -20 -20 -20 -20 -20 -20 -20 -20
-5 -19 18 -17 -20 29 -9 20 32 43 20 -12 -20 -20 -20 2 -20 2 -1 3 -20 -20 -20 -20 -20 -20 -20 -20 -20 -20 -20 -20
20 -11 35 -8 -17 -18 6 20 36 47 36 24 16 -20 -9 -20 -20 -20 -20 -20 -20 -20 -19 -20 -20 -20 -20 -20 -20 -20 -20 -20
-20 -6 9 12 -14 -2 20 6 -2 43 41 27 31 6 -11 31 -20 -20 -20 -20 -19 10 -19 -20 -20 -20 -20 -20 -19 -20 -20 -20
-20 -20 -20 -18 33 -20 -4 8 32 41 27 26 29 -12 -11 36 -9 -20 -20 -17 8 7 -20 -20 -20 -20 -20 -20 -13 -19 -20 -20
-20 -15 -17 -20 12 4 33 4 28 39 40 31 32 26 30 30 19 9 -19 2 21 5 -20 -20 -20 -20 -20 -20 -19 -20 -20 -20
-20 -20 -12 -14 -4 -20 4 24 18 5 21 12 -4 20 2 27 12 9 -17 -5 1 -20 -20 -20 -20 -20 -20 -20 -20 -20 -20 -20
-20 -20 5 -20 6 20 19 26 26 19 22 23 17 21 2 18 12 -13 -20 -7 -20 -20 -20 -20 -20 -20 -20 -20 -20 -20 -20 -20
-20 -20 3 -11 -8 8 10 23 19 16 4 -11 -19 13 8 13 3 27 -20 1 -20 -20 -20 -20 -20 -20 -20 -20 -20 -20 -20 -20
-20 -20 5 -20 -1 21 21 11 -6 17 12 8 -2 2 22 16 32 24 30 32 -20 -20 -20 -2 -20 -20 -20 -20 -20 -20 -20 -20
-20 -20 -20 -20 2 -12 -20 -13 -16 2 11 1 13 14 13 14 10 -1 -9 6 -20 -20 7 16 -12 -18 -20 -16 -18 -20 -20 -20
-20 -20 -18 -20 -2 -15 -20 -20 -14 3 15 17 5 11 5 -9 -0 -17 -20 -20 -20 -15 2 15 21 13 9 1 -19 -19 -20 -20
-13 -2 -15 -19 -20 -15 12 5 2 3 -6 -2 8 7 3 -20 -20 -20 -20 -20 -20 -19 10 13 3 -3 -18 -19 -18 -20 -20 -20
9 3 -20 -20 10 -3 -20 -11 10 -8 -17 -14 3 -8 -20 -12 -20 -20 -20 -20 -16 -20 -10 -20 -12 29 -4 -20 -20 -10 22 31
-19 -19 -20 -20 -2 -17 -20 -8 -20 -20 -20 -20 -20 -18 -20 -20 -19 -20 -20 -20 -16 6 -4 -9 33 25 -20 27 -15 -20 -9 13
-2 6 -14 -20 -5 -5 -20 -20 -20 -20 -20 -20 -20 -20 2 -20 -20 -20 -20 -20 -18 6 -9 35 33 13 -10 -3 -8 18 12 20
-9 -20 -14 -19 -10 12 -5 -20 -20 -20 -20 -20 -20 -20 -20 -20 -20 -20 -20 -20 -12 -20 21 27 -14 -20 -10 13 1 4 16 12
-20 -11 -19 1 6 -17 1 -20 -20 -20 -20 -20 -20 -20 -20 -17 -13 -20 -20 -20 -14 -20 -20 -20 -20 -20 -20 7 9 11 -9 -20